weather.gov     
National Weather Service

Regional Weather Roundup
NWS Homepage
This page is being discontinued on March 12, 2014.
The same data is available at this site. Please update your bookmarks.
Thank you, and we apologize for the inconvenience.
Please send an email to SR-SRH.Webmaster@noaa.gov with any concerns.


Current Version
Previous Version:    01  02  03  04  05  06  07  08  09  10  11  12  13  14  15  16  17  18  19  20  21  22  23  24  25  26  27  28  29  30  
   31  32  33  34  35  36  37  38  39  40  41  42  43  44  45  46  47  48  49  50  51  52  53  54  55  56  57  58  59  60  
[Printable]
994
ASUS43 KDTX 190110
RWRMI
MICHIGAN HOURLY REGIONAL WEATHER ROUNDUP
NATIONAL WEATHER SERVICE DETROIT/PONTIAC MI
900 PM EDT THU SEP 18 2014

NOTE: "FAIR" INDICATES FEW OR NO CLOUDS BELOW 12,000 FEET WITH NO
SIGNIFICANT WEATHER AND/OR OBSTRUCTION TO VISIBILITY.

MIZ047>049-052>055-059>063-066>070-074>076-081>083-190200-
SOUTHEAST LOWER MICHIGAN

CITY           SKY/WX    TMP DP  RH WIND       PRES   REMARKS
ADRIAN         PTCLDY    57  51  80 E10       30.17R
ALMA           CLEAR     48  46  93 CALM      30.19R
ANN ARBOR      CLOUDY    58  49  72 NE7       30.17R
BAD AXE        CLEAR     42  40  92 NE3       30.22R
CARO           CLEAR     47  42  84 NE5       30.20R
DETROIT CITY   PTCLDY    55  46  71 NE9       30.19R
DETROIT        MOCLDY    57  49  74 E5        30.18R
FLINT          CLEAR     53  46  77 NE7       30.19R
GROSSE ILE     CLEAR     55  50  82 NE8       30.17R
HILLSDALE      CLEAR     57  53  87 NE5       30.16R
HOWELL         CLEAR     50  48  94 CALM      30.18R

CITY           SKY/WX    TMP DP  RH WIND       PRES   REMARKS
JACKSON        CLEAR     54  50  86 NE5       30.17R
LAMBERTVILLE   CLEAR     59  52  77 NE3       30.17R
LANSING        CLEAR     51  47  86 NE3       30.19R
LAPEER         FAIR      48  43  84 E3        30.20R
MASON          CLEAR     51  48  90 CALM      30.17R
MONROE         CLEAR     55  50  82 E5        30.16R
MT. CLEMENS    CLEAR     49  49  99 N8        30.18R
PONTIAC        PTCLDY    52  46  80 NE6       30.18R
PORT HOPE        N/A     50  39  66 NE8       30.21R
PORT HURON     CLEAR     45  43  93 NW3       30.20R
TRI CITIES     CLEAR     49  42  77 E6        30.21R
TROY           MOCLDY    55  45  70 NE10      30.21R
SAGINAW HB     CLEAR     45  45 100 NE3       30.20R
$$
MIZ043>046-050>051-056>058-064>065-071>073-077>080-190200-
SOUTHWEST LOWER MICHIGAN

CITY           SKY/WX    TMP DP  RH WIND       PRES   REMARKS
BATTLE CREEK   CLEAR     59  51  75 E7        30.16R
BENTON HARBOR  CLEAR     54  51  90 CALM      30.13R
BIG RAPIDS     CLEAR     51  51 100 S5        30.17R
COLDWATER      CLEAR     58  52  81 NE6       30.15R
FREMONT        FAIR      54  52  92 E5        30.16R
HOLLAND        CLEAR     60  54  80 E6        30.16R
GRAND RAPIDS   CLEAR     54  52  93 NE6       30.17R
IONIA          FAIR      52  50  93 E7        30.17R
KALAMAZOO      CLEAR     60  52  74 CALM      30.16R
LUDINGTON      PTCLDY    52  49  90 CALM      30.16R
MARSHALL       CLEAR     55  51  86 SE3       30.16R
MOUNT PLEASANT PTCLDY    46  45  96 E5        30.19R FOG
MUSKEGON       PTCLDY    58  52  80 E6        30.16R
SOUTH HAVEN    CLEAR     57  54  88 CALM      30.14R
$$
MIZ016>042-190200-
NORTHERN LOWER MICHIGAN

CITY           SKY/WX    TMP DP  RH WIND       PRES   REMARKS
ALPENA         CLEAR     40  36  86 E6        30.23R
BEAVER ISLAND  CLEAR     43  42  96 CALM      30.19R
CADILLAC       MOCLDY    52  50  93 SE7       30.17R
CHARLEVOIX     CLEAR     48  45  89 CALM      30.20R
FRANKFORT      PTCLDY    49  45  84 CALM      30.16S
GAYLORD        CLEAR     47  39  74 E3        30.18R
GRAYLING       CLEAR     48  44  85 SE6       30.20R
HARBOR SPRINGS CLEAR     47  40  77 NE9       30.19R HAZE
HOUGHTON LAKE  PTCLDY    46  43  89 E5        30.20R
MANISTEE       PTCLDY    52  45  76 CALM      30.17R
OSCODA         CLEAR     48  38  69 E6        30.22R
PELLSTON       CLEAR     44  38  79 E3        30.21R
ROGERS CITY    CLEAR     45  39  81 E7        30.23S
TRAVERSE CITY  PTCLDY    50  46  86 CALM      30.16R
$$
MIZ007>008-015-190200-
EASTERN UPPER MICHIGAN

CITY           SKY/WX    TMP DP  RH WIND       PRES   REMARKS
KINROSS        CLEAR     41  37  87 SE6       30.21R
MACKINAC ISLAN CLEAR     47  37  69 SE10G17   30.20R
NEWBERRY       CLEAR     40  37  90 CALM      30.19R
S. S. MARIE    CLEAR     44  35  70 SE7       30.21R
MUNISING         N/A     48  40  73 S6        30.16R
$$
MIZ004>006-011>014-085-190200-
CENTRAL UPPER MICHIGAN

CITY           SKY/WX    TMP DP  RH WIND       PRES   REMARKS
MANISTIQUE     PTCLDY    40  39  96 CALM      30.18R
ESCANABA       PTCLDY    48  39  71 SE6       30.16R
MENOMINEE      CLEAR     48  45  87 CALM      30.15S
SAWYER-GWINN   PTCLDY    48  41  76 S8        30.14S
$$
MIZ001>003-009>011-084-190200-
WESTERN UPPER MICHIGAN

CITY           SKY/WX    TMP DP  RH WIND       PRES   REMARKS
IRON MOUNTAIN  PTCLDY    50  44  80 SE5       30.13R
HOUGHTON       CLOUDY    45  40  82 E12       30.10F
COPPER HARBOR    N/A     47  39  74 S5        30.12F
IRONWOOD       CLEAR     52  48  87 CALM      30.06R
$$

ABBREVIATIONS USED IN REMARKS
   TC - TEMPERATURE IN CELSIUS
  WCI - WIND CHILL INDEX
   HX - HEAT INDEX
  VSB - VISIBILITY





U.S. Dept. of Commerce
NOAA National Weather Service
1325 East West Highway
Silver Spring, MD 20910
E-mail: w-nws.webmaster@noaa.gov
Page last modified: May 16, 2007
NATIONAL WEATHER SERVICE: for Safety, for Work, for Fun - FOR LIFE